User: anonymous   Login
Location: Mauna Kea VIS
(19.7591°N, 155.4561°W)
Time: 09:46:32
(UTC-10:00)
Language:

Cosmos 1624 Rocket - Orbit

View from above orbital plane
View from above orbital plane
View from above satellite
View from above satellite

Ground track
Ground track

The orbit data is extracted from the following two-line orbital elements,

1 15483U 85006B   18173.96156932 -.00000003 +00000-0 +79388-5 0  9995
2 15483 074.0465 034.7803 0019699 283.5832 176.0747 14.36235032749505
Epoch (UTC): 22 June 2018 23:04:39
Eccentricity: 0.0019699
inclination: 74.0465°
perigee height: 757 km
apogee height: 785 km
right ascension of ascending node: 34.7803°
argument of perigee: 283.5832°
revolutions per day: 14.36235032
mean anomaly at epoch: 176.0747°
orbit number at epoch: 74950

The dashed part of the orbit path shows where the satellite is in the earth's shadow,  

DLR